Change the Weather History Date:

Thursday, December 5, 2013

  Actual Average Record
Temperature  
Mean Temperature -6 °F 26 °F  
Max Temperature 4 °F 40 °F 68 °F (2012)
Min Temperature -17 °F 12 °F -17 °F (2013)
Degree Days  
Heating Degree Days 71 39  
Month to date heating degree days 223 193  
Since 1 July heating degree days 1859 1877  
Cooling Degree Days 0 0  
Month to date cooling degree days 0 0  
Year to date cooling degree days 917 712  
Moisture  
Dew Point -11 °F    
Average Humidity 72    
Maximum Humidity 81    
Minimum Humidity 62    
Precipitation  
Precipitation 0.00 in 0.01 in 0.15 in (1983)
Month to date precipitation T 0.08  
Year to date precipitation 19.10 17.61  
Sea Level Pressure  
Sea Level Pressure 30.47 in    
Wind  
Wind Speed 7 mph (WSW)    
Max Wind Speed 20 mph    
Max Gust Speed 23 mph    
Visibility 10 miles    
Events      
T = Trace of Precipitation, MM = Missing Value Source: NWS Daily Summary

Daily Weather History Graph

Daily Weather History Graph

Search for Another Location

Airport or City:

Trip Planner

Search our weather history database for the weather conditions in past years. The results will help you decide how hot, cold, wet, or windy it might be!

Date:

Astronomy

Dec. 05, 2013 Rise Set
Actual Time 7:07 AM MST 4:18 PM MST
Civil Twilight 6:35 AM MST 4:50 PM MST
Nautical Twilight 6:00 AM MST 5:25 PM MST
Astronomical Twilight 5:26 AM MST 5:59 PM MST
Moon 9:27 AM MST (12/5) 7:44 PM MST (12/5)
Length of Visible Light 10h 14m
Length of Day
9h 10m
Waxing Crescent, 11% of the Moon is Illuminated
Dec 5
Waxing Crescent
Dec 9
First Quarter
Dec 17
Full
Dec 25
Last Quarter
Jan 1
New

Hourly Weather History & Observations

Time (MST) Temp. Windchill Dew Point Humidity Pressure Visibility Wind Dir Wind Speed Gust Speed Precip Events Conditions
12:53 AM -0.9 °F -17.4 °F -9.0 °F 69% 30.40 in 10.0 mi West 10.4 mph - N/A   Clear
1:53 AM -2.9 °F -15.0 °F -9.9 °F 72% 30.42 in 10.0 mi South 5.8 mph - N/A   Clear
2:53 AM -2.0 °F -12.2 °F -9.9 °F 69% 30.43 in 10.0 mi West 4.6 mph - N/A   Clear
3:53 AM -2.9 °F - -11.0 °F 68% 30.41 in 10.0 mi Calm Calm - N/A   Clear
4:53 AM -4.0 °F -17.8 °F -11.9 °F 69% 30.42 in 10.0 mi SSW 6.9 mph - N/A   Clear
5:53 AM -5.1 °F -27.2 °F -11.9 °F 72% 30.43 in 10.0 mi WSW 17.3 mph - N/A   Clear
6:53 AM -4.0 °F -25.8 °F -11.9 °F 69% 30.44 in 10.0 mi WSW 17.3 mph - N/A   Clear
7:53 AM -4.0 °F -24.5 °F -11.9 °F 69% 30.46 in 10.0 mi WSW 15.0 mph - N/A   Clear
8:53 AM -2.0 °F -17.7 °F -11.0 °F 66% 30.48 in 10.0 mi WSW 9.2 mph - N/A   Clear
9:53 AM -0.9 °F -18.3 °F -9.9 °F 66% 30.49 in 10.0 mi West 11.5 mph - N/A   Clear
10:53 AM 1.0 °F - -7.1 °F 69% 30.48 in 10.0 mi Calm Calm - N/A   Clear
11:53 AM 3.0 °F -11.5 °F -7.1 °F 63% 30.45 in 10.0 mi WNW 9.2 mph - N/A   Clear
12:53 PM 3.9 °F -13.0 °F -6.0 °F 64% 30.42 in 10.0 mi WNW 12.7 mph - N/A   Clear
1:53 PM 3.9 °F -13.7 °F -6.0 °F 64% 30.41 in 10.0 mi WNW 13.8 mph - N/A   Clear
2:53 PM 3.9 °F -9.4 °F -6.0 °F 64% 30.42 in 10.0 mi WNW 8.1 mph - N/A   Clear
3:53 PM 1.0 °F -10.3 °F -7.1 °F 69% 30.45 in 10.0 mi West 5.8 mph - N/A   Clear
4:53 PM -4.0 °F -20.2 °F -11.0 °F 72% 30.48 in 10.0 mi SSW 9.2 mph - N/A   Clear
5:53 PM -6.0 °F -16.9 °F -13.0 °F 72% 30.51 in 10.0 mi SW 4.6 mph - N/A   Scattered Clouds
6:53 PM -9.9 °F - -15.0 °F 78% 30.53 in 10.0 mi Calm Calm - N/A   Scattered Clouds
7:53 PM -4.0 °F -14.6 °F -11.0 °F 72% 30.54 in 10.0 mi NW 4.6 mph - N/A   Overcast
8:53 PM -5.1 °F - -11.0 °F 76% 30.55 in 10.0 mi Calm Calm - N/A   Overcast
9:53 PM -7.1 °F - -13.0 °F 75% 30.57 in 10.0 mi Calm Calm - N/A   Overcast
10:53 PM -14.1 °F - -18.0 °F 82% 30.60 in 10.0 mi Calm Calm - N/A   Clear
11:53 PM -14.1 °F - -18.9 °F 79% 30.60 in 10.0 mi Calm Calm - N/A   Clear